Weather History for College Station, TX

Change the Weather History Date:

Friday, October 4, 2013

  Actual Average Record
Temperature  
Mean Temperature 81 °F 74 °F  
Max Temperature 89 °F 85 °F 98 °F (1911)
Min Temperature 72 °F 64 °F 46 °F (1975)
Degree Days  
Heating Degree Days 0 0  
Month to date heating degree days 0 0  
Since 1 July heating degree days 0 2  
Cooling Degree Days 16 10  
Month to date cooling degree days 62 40  
Year to date cooling degree days 3095 2836  
Growing Degree Days 30 (Base 50)    
Moisture  
Dew Point 71 °F    
Average Humidity 76    
Maximum Humidity 100    
Minimum Humidity 52    
Precipitation  
Precipitation 0.00 in 0.15 in 1.01 in (1959)
Month to date precipitation 0.64 0.57  
Year to date precipitation 25.56 29.27  
Sea Level Pressure  
Sea Level Pressure 29.90 in    
Wind  
Wind Speed 8 mph (SSE)    
Max Wind Speed 16 mph    
Max Gust Speed 23 mph    
Visibility 10 miles    
Events      
T = Trace of Precipitation, MM = Missing Value Source: NWS Daily Summary

Daily Weather History Graph

Daily Weather History Graph

Search for Another Location

Airport:

Trip Planner

Search our weather history database for the weather conditions in past years. The results will help you decide how hot, cold, wet, or windy it might be!

Date:

Astronomy

Oct. 04, 2013 Rise Set
Actual Time 7:20 AM CDT 7:06 PM CDT
Civil Twilight 6:56 AM CDT 7:30 PM CDT
Nautical Twilight 6:29 AM CDT 7:58 PM CDT
Astronomical Twilight 6:01 AM CDT 8:26 PM CDT
Moon 6:56 AM CDT (10/4) 6:52 PM CDT (10/4)
Length of Visible Light 12h 33m
Length of Day
11h 45m
Waning Crescent, 0% of the Moon is Illuminated
Oct 4
Waning Crescent
Oct 4
New
Oct 11
First Quarter
Oct 18
Full
Oct 26
Last Quarter

Hourly Weather History & Observations

Time (CDT) Temp. Heat Index Dew Point Humidity Pressure Visibility Wind Dir Wind Speed Gust Speed Precip Events Conditions
12:53 AM 75.9 °F - 72.0 °F 87% 29.90 in 10.0 mi SSE 8.1 mph - N/A   Clear
1:53 AM 75.0 °F - 72.0 °F 90% 29.90 in 10.0 mi SSE 5.8 mph - N/A   Clear
2:53 AM 73.9 °F - 72.0 °F 93% 29.90 in 10.0 mi SSE 4.6 mph - N/A   Mostly Cloudy
3:12 AM 73.4 °F - 71.6 °F 94% 29.91 in 10.0 mi Calm Calm - N/A   Scattered Clouds
3:53 AM 73.0 °F - 72.0 °F 96% 29.90 in 10.0 mi SSE 3.5 mph - N/A   Partly Cloudy
4:09 AM 73.4 °F - 71.6 °F 94% 29.91 in 10.0 mi Calm Calm - N/A   Mostly Cloudy
4:20 AM 73.4 °F - 71.6 °F 94% 29.90 in 10.0 mi SE 3.5 mph - N/A   Scattered Clouds
4:30 AM 73.4 °F - 71.6 °F 94% 29.90 in 10.0 mi Calm Calm - N/A   Mostly Cloudy
4:39 AM 73.4 °F - 71.6 °F 94% 29.90 in 10.0 mi SE 4.6 mph - N/A   Scattered Clouds
4:53 AM 73.0 °F - 72.0 °F 96% 29.89 in 10.0 mi SE 3.5 mph - N/A   Partly Cloudy
5:53 AM 72.0 °F - 72.0 °F 100% 29.90 in 9.0 mi SE 3.5 mph - N/A   Clear
6:53 AM 72.0 °F - 72.0 °F 100% 29.91 in 8.0 mi SSE 5.8 mph - N/A   Clear
7:17 AM 71.6 °F - 71.6 °F 100% 29.92 in 5.0 mi SE 3.5 mph - N/A   Partly Cloudy
7:53 AM 72.0 °F - 72.0 °F 100% 29.91 in 9.0 mi SSE 5.8 mph - N/A   Clear
8:53 AM 75.9 °F - 73.0 °F 91% 29.92 in 10.0 mi South 5.8 mph - N/A   Clear
9:53 AM 80.1 °F 83.8 °F 72.0 °F 76% 29.93 in 10.0 mi South 10.4 mph - N/A   Partly Cloudy
10:53 AM 82.0 °F 86.7 °F 72.0 °F 71% 29.93 in 10.0 mi SSW 11.5 mph 18.4 mph N/A   Partly Cloudy
11:29 AM 84.2 °F 89.6 °F 71.6 °F 66% 29.94 in 10.0 mi South 10.4 mph - N/A   Mostly Cloudy
11:40 AM 82.4 °F 87.2 °F 71.6 °F 70% 29.93 in 10.0 mi SSW 9.2 mph - N/A   Scattered Clouds
11:53 AM 82.9 °F 87.5 °F 71.1 °F 67% 29.92 in 10.0 mi South 8.1 mph - N/A   Partly Cloudy
12:53 PM 86.0 °F 91.5 °F 71.1 °F 61% 29.91 in 10.0 mi South 10.4 mph - N/A   Mostly Cloudy
1:53 PM 87.1 °F 92.0 °F 70.0 °F 57% 29.89 in 10.0 mi SSE 10.4 mph - N/A   Mostly Cloudy
2:53 PM 88.0 °F 92.9 °F 70.0 °F 55% 29.86 in 10.0 mi ESE 10.4 mph 16.1 mph N/A   Scattered Clouds
3:53 PM 89.1 °F 94.1 °F 70.0 °F 53% 29.85 in 10.0 mi South 15.0 mph - N/A   Scattered Clouds
4:53 PM 88.0 °F 92.1 °F 69.1 °F 53% 29.85 in 10.0 mi SE 12.7 mph 23.0 mph N/A   Scattered Clouds
5:53 PM 88.0 °F 92.1 °F 69.1 °F 53% 29.86 in 10.0 mi SE 11.5 mph - N/A   Clear
6:53 PM 84.9 °F 88.8 °F 69.1 °F 59% 29.86 in 10.0 mi SE 8.1 mph - N/A   Clear
7:53 PM 82.0 °F 85.5 °F 69.1 °F 65% 29.88 in 10.0 mi SE 6.9 mph - N/A   Clear
8:53 PM 81.0 °F 84.4 °F 70.0 °F 69% 29.89 in 10.0 mi SE 6.9 mph - N/A   Clear
9:53 PM 80.1 °F 83.2 °F 70.0 °F 71% 29.90 in 10.0 mi SSE 11.5 mph - N/A   Clear
10:53 PM 79.0 °F - 70.0 °F 74% 29.91 in 10.0 mi South 9.2 mph - N/A   Clear
11:53 PM 75.9 °F - 70.0 °F 82% 29.91 in 10.0 mi Calm Calm - N/A   Clear